Overview Statistics Trail Chart Weather Telemetry Raw packets
 

This is the latest recevied weather packets stored in our database for station/object SV9TNF-57. If no packets are shown the sender has not sent any weather packets the latest 10 day(s).

<< 22 23 24 25 26 27 28 >>
Time Temp. Humidity Pressure Rain* Wind** Luminosity Snow
1788506075 28.89° C 42% 994.6 hPa 0 mm 8.49 m/s, 0° - -
1788505775 28.89° C 44% 994.4 hPa 0 mm 4.92 m/s, 310° - -
1788505474 29.44° C 42% 994.4 hPa 0 mm 9.83 m/s, 291° - -
1788505175 28.89° C 44% 994.3 hPa 0 mm 3.58 m/s, 302° - -
1788504874 28.89° C 44% 994.1 hPa 0 mm 2.68 m/s, 291° - -
1788504575 28.89° C 43% 994.1 hPa 0 mm 6.71 m/s, 270° - -
1788504274 28.89° C 44% 994.3 hPa 0 mm 0.89 m/s, 142° - -
1788503974 28.33° C 45% 994.2 hPa 0 mm 10.73 m/s, 324° - -
1788503674 28.33° C 44% 994.1 hPa 0 mm 9.39 m/s, 317° - -
1788503374 28.33° C 44% 994 hPa 0 mm 7.15 m/s, 49° - -
1788503074 28.33° C 45% 994.2 hPa 0 mm 8.49 m/s, 310° - -
1788502774 28.33° C 45% 993.7 hPa 0 mm 13.86 m/s, 339° - -
1788502474 28.33° C 46% 994 hPa 0 mm 0.45 m/s, 38° - -
1788502174 28.33° C 47% 994 hPa 0 mm 0 m/s - -
1788501873 28.33° C 47% 994.1 hPa 0 mm 4.92 m/s, 319° - -
1788501573 27.78° C 48% 994 hPa 0 mm 10.28 m/s, 320° - -
1788501273 27.78° C 51% 994 hPa 0 mm 8.49 m/s, 321° - -
1788500974 27.78° C 53% 993.9 hPa 0 mm 5.36 m/s, 299° - -
1788500673 27.78° C 53% 994 hPa 0 mm 0 m/s - -
1788500373 27.78° C 54% 994 hPa 0 mm 6.71 m/s, 256° - -
1788500073 27.22° C 54% 993.9 hPa 0 mm 8.49 m/s, 348° - -
1788499773 27.22° C 55% 993.9 hPa 0 mm 4.02 m/s, 334° - -
1788499473 27.22° C 56% 994 hPa 0 mm 2.68 m/s, 236° - -
1788499173 27.22° C 55% 994 hPa 0 mm 3.58 m/s, 315° - -
1788498872 26.67° C 56% 993.8 hPa 0 mm 3.58 m/s, 302° - -

* Rain latest hour (hover to see other rain measurements)
** Current wind speed in m/s (hover to see current wind gust speed)